User: anonymous
Location: Columbia
(38.9520°N, 92.3340°W)
Time: 21:32:10
(UTC-05:00)
Language:

Iridium 22 - Orbit

View from above orbital plane
View from above orbital plane
View from above satellite
View from above satellite

Ground track
Ground track

The orbit data is extracted from the following two-line orbital elements,

1 24907U 97043E   14204.49102791  .00000123  00000-0  36888-4 0  9004
2 24907 086.4004 338.9386 0002235 109.8175 318.8907 14.34217014885946
Epoch (UTC): 23 July 2014 11:47:04
Eccentricity: 0.0002235
inclination: 86.4004°
perigee height: 776 km
apogee height: 779 km
right ascension of ascending node: 338.9386°
argument of perigee: 109.8175°
revolutions per day: 14.34217014
mean anomaly at epoch: 318.8907°
orbit number at epoch: 88594

The dashed part of the orbit path shows where the satellite is in the earth's shadow,  

DLR